Voltar ao catálogo

STARLINK-35389

AtivoComunicaçõesVLEO
NORAD 66434·PAYLOAD·🇺🇸 United States

Lançado Nov 11, 2025 de Cape Canaveral Space Force Station

Loading…

Próximas Passagens (próximas 24 horas)

TLE

AtualizadoSource: CelesTrak SupGP

Época: Sep 14, 2026, 22:56 UTC

1 66434C 25259N   26257.95604167  .00029051  00000+0  10523-2 0  2572
2 66434  42.9997 285.1796 0001486 264.6423 341.2247 15.27561654    15

Acompanhe STARLINK-35389 em tempo real com AllMySat

Download on the App Store